GOES 1 AKM, 20962

Orbit data source: Space-Track

GOES 1 AKM, 20962 is space debris in GEO originally from a launch on Thu, 16 Oct 1975 UTC launched from the Air Force Eastern Test Range (AFETR). Debris objects in space refer to the collection of defunct objects orbiting the Earth. Examples of debris include non-operational satellites, rocket bodies, and fragments generated from explosions, collisions, or faulty payload assembly.

Not visible in the next 10 days
GOES 1 AKM details
Identifier
20962, 1975-100F
Orbit
GEO
Last TLE update20 hours ago
Origin
Flag of USGSFC (US)
ManufacturerAerojet
MissionSpacecraft
Bus & MotorSVM, SVM-5
MassWet unknown, 31 kg dry
Launch date (UTC)
1975-10-16 (49 years ago)
Launch vehicleUnknown
Launch site
Air Force Eastern Test Range (AFETR)
Object type
Payload
Rocket body
Debris
Shape & HBRUnknown
Radar Cross SectionMedium (>0.1 m² and <1 m²)

Expand to show TLE details & history

TLE from 20 hours ago
0 GOES 1 AKM
1 20962U 75100F   24361.01363549  .00000089  00000-0  00000-0 0  9996
2 20962   3.6571 266.3540 0275477  68.7069 294.5474  1.01930055130662
Epoch: 2024-12-26T00:19Z
Definitive object data (Epoch: 2024-12-26T00:19:38.106Z)
Latitude0.00001°
Longitude166.78687°
Altitude34,875.284 km
Speed3.125 km/s
True Right ascension17h 46m 46s
True Declination0° 00' 00"
Sunlit
Object was in daylight at TLE epoch
Visualization TLE readout
Latitude-3.09545°
Longitude109.12406°
Altitude35,978.734 km
Speed3.044 km/s
Apparent Right ascension13h 29m 31s
Apparent Declination-8° 36' 45"
Sunlit
Object is in daylight
Visualization observer readout
Local Sidereal Time19:27:21
Azimuth263.032° W
Elevation-5.102°
Doppler factor1
Orbital elements
Apogee altitude36,478.051 km
Perigee altitude34,180.173 km
Semi-major axis41,707.249 km
Eccentricity0.0275477
Inclination3.6571°
RAAN266.354°
Arg. of periapsis68.7069°
True anomaly291.63559°
Mean anomaly294.5474°
Eccentric anomaly293.09554°
Mean motion0.25482 °/min
BSTARUnknown
Orbital period1412.79 mins
Loading historical data...
20962 neighbors
Authenticating...
Loading maneuver chart data...
Loading historical data...
Loading historical data...
Loading historical data...
Loading historical data...
Loading historical data...
Loading historical data...
Loading historical data...

GOES 1 AKM Visibility forecast

Observer location: undefined°, undefined

GOES 1 AKM is not visible in the next 10 days
Span
Click to sort rows by Start time (UTC) header in descending order
Start Az.
Max El. time (UTC)
Max El. Az.
Max El.
End time (UTC)
End Az.
|